Weather History for Hyderabad, India

Change the Weather History Date:

Thursday, May 23, 2013

  Actual Average Record
Temperature  
Mean Temperature 98 °F -  
Max Temperature 110 °F 92 °F 110 °F (2013)
Min Temperature 86 °F 77 °F 77 °F (1999)
Cooling Degree Days 33    
Growing Degree Days 48 (Base 50)    
Moisture  
Dew Point 49 °F    
Average Humidity 16    
Maximum Humidity 26    
Minimum Humidity 10    
Precipitation  
Precipitation 0.00 in 0.13 in - ()
Sea Level Pressure  
Sea Level Pressure 29.68 in    
Wind  
Wind Speed 5 mph ()    
Max Wind Speed 16 mph    
Max Gust Speed -    
Visibility 4.4 miles    
Events      
Averages and records for this station are not official NWS values.
T = Trace of Precipitation, MM = Missing Value Source: Averaged Metar Reports

Daily Weather History Graph

Daily Weather History Graph

Search for Another Location

Airport:

Trip Planner

Search our weather history database for the weather conditions in past years. The results will help you decide how hot, cold, wet, or windy it might be!

Date:

Astronomy

May. 23, 2013 Rise Set
Actual Time 5:41 AM IST 6:43 PM IST
Civil Twilight 5:18 AM IST 7:07 PM IST
Nautical Twilight 4:50 AM IST 7:35 PM IST
Astronomical Twilight 4:22 AM IST 8:03 PM IST
Moon 4:56 PM IST (5/23) 3:49 AM IST (5/23)
Length of Visible Light 13h 48m
Length of Day
13h 01m
Waxing Gibbous, 95% of the Moon is Illuminated
May 23
Waxing Gibbous
May 25
Full
Jun 1
Last Quarter
Jun 8
New
Jun 16
First Quarter

Hourly Weather History & Observations

Time (IST) Temp. Heat Index Dew Point Humidity Pressure Visibility Wind Dir Wind Speed Gust Speed Precip Events Conditions
2:30 AM 91 °F - 56 °F 21% 29.55 in 2 mi Calm Calm - -   Partly Cloudy
5:30 AM 91 °F - 54 °F 19% 29.60 in 2 mi Calm Calm - -   Partly Cloudy
6:10 AM 93.2 °F - 42.8 °F 17% 29.77 in 1.9 mi WNW 6.9 mph - N/A   Haze
8:10 AM 95.0 °F - 44.6 °F 18% 29.83 in 3.1 mi West 8.1 mph - N/A   Haze
8:30 AM 94 °F - 56 °F 19% 29.65 in 6 mi West 3.5 mph - -   Partly Cloudy
9:10 AM 100.4 °F - 42.8 °F 14% 29.83 in 3.1 mi West 10.4 mph - N/A   Haze
11:10 AM 104.0 °F - 41.0 °F 12% 29.83 in 5.0 mi WNW 16.1 mph - N/A   Scattered Clouds
11:30 AM 100 °F - 56 °F 15% 29.61 in 6 mi NW 5.8 mph - -   Scattered Clouds
12:10 PM 107.6 °F - 41.0 °F 10% 29.77 in 5.0 mi NW 10.4 mph - N/A   Partly Cloudy
1:10 PM 109.4 °F - 42.8 °F 11% 29.74 in 5.0 mi NNW 10.4 mph - N/A   Partly Cloudy
2:30 PM 110 °F - 56 °F 10% 29.49 in 6 mi NW 6.9 mph - -   Clear
2:40 PM 111.2 °F 114.0 °F 60.8 °F 20% 29.71 in 5.0 mi NW 11.5 mph - N/A   Partly Cloudy
3:10 PM 111.2 °F - 42.8 °F 10% 29.68 in 5.0 mi NW 11.5 mph - N/A   Partly Cloudy
4:10 PM 111.2 °F - 42.8 °F 10% 29.68 in 5.0 mi North 11.5 mph - N/A   Partly Cloudy
5:10 PM 109.4 °F - 42.8 °F 11% 29.68 in 5.0 mi NNW 10.4 mph - N/A   Partly Cloudy
5:30 PM 107 °F - 61 °F 15% 29.47 in 6 mi NW 5.8 mph - -   Clear
6:10 PM 107.6 °F - 44.6 °F 12% 29.68 in 3.7 mi NW 8.1 mph - N/A   Partly Cloudy
7:10 PM 102.2 °F - 44.6 °F 14% 29.71 in 3.7 mi Calm Calm - N/A   Partly Cloudy
8:10 PM 96.8 °F - 46.4 °F 18% 29.74 in 3.7 mi Calm Calm - N/A   Partly Cloudy
8:30 PM 96 °F - 58 °F 19% 29.56 in 6 mi Calm Calm - -   Partly Cloudy
9:10 PM 91.4 °F - 50.0 °F 24% 29.74 in 3.7 mi Calm Calm - N/A   Scattered Clouds
10:10 PM 91.4 °F - 51.8 °F 26% 29.74 in 3.7 mi Calm Calm - N/A   Scattered Clouds
11:30 PM 91 °F - 58 °F 23% 29.59 in 6 mi Calm Calm - -   Partly Cloudy